EW0158 Weather Reports


Display with metric or nautical units.
time (UTC)temp
F
wind
direction
speed
MPH
gust
MPH
rain 1hr
in
rain 24hr
in
rain mn
in
humidity
%
barometer
mb
20260505125016 66 202 13.0 19.0 0.00 0.00 0.00 98 1009.3
20260505124016 66 202 13.0 20.0 0.00 0.00 0.00 98 1009.2
20260505123016 66 202 14.0 27.0 0.00 0.00 0.00 98 1009.3
20260505122016 66 202 13.0 20.0 0.00 0.00 0.00 98 1009.2
20260505121137 66 202 11.0 18.0 0.00 0.00 0.00 98 1009.0
20260505120016 66 202 11.0 19.0 0.00 0.00 0.00 98 1008.9
20260505115016 66 202 12.0 18.0 0.00 0.00 0.00 98 1008.9
20260505114017 66 202 11.0 17.0 0.00 0.00 0.00 98 1008.8
20260505113016 66 202 10.0 17.0 0.00 0.00 0.00 97 1008.8
20260505112016 66 202 12.0 18.0 0.00 0.00 0.00 97 1008.8
20260505111016 66 202 12.0 19.0 0.00 0.00 0.00 97 1008.8
20260505102157 66 202 13.0 20.0 0.00 0.00 0.00 96 1009.1
20260505101016 66 202 14.0 21.0 0.00 0.00 0.00 96 1009.0
20260505100117 66 202 17.0 25.0 0.00 0.00 0.00 96 1009.0
20260505095017 66 202 14.0 22.0 0.00 0.00 0.00 96 1009.1
20260505094016 66 202 15.0 23.0 0.00 0.00 0.00 95 1009.1
20260505093018 66 202 13.0 23.0 0.00 0.00 0.00 95 1009.2
20260505092116 66 202 13.0 20.0 0.00 0.00 0.00 95 1009.3
20260505091016 66 202 13.0 24.0 0.00 0.00 0.00 96 1009.1
20260505090016 66 202 12.0 21.0 0.00 0.00 0.00 96 1009.1
20260505085017 66 202 12.0 19.0 0.00 0.00 0.00 96 1009.2
20260505084016 66 202 12.0 18.0 0.00 0.00 0.00 96 1009.3
20260505083017 66 202 11.0 17.0 0.00 0.00 0.00 96 1009.5
20260505081016 65 202 11.0 18.0 0.00 0.00 0.00 96 1010.0
20260505080016 65 202 12.0 19.0 0.00 0.00 0.00 96 1009.8
20260505075017 66 180 12.0 19.0 0.00 0.00 0.00 95 1009.8
20260505074137 66 180 11.0 20.0 0.00 0.00 0.00 95 1009.7
20260505073016 66 202 12.0 18.0 0.00 0.00 0.00 95 1010.1
20260505072017 66 180 12.0 20.0 0.00 0.00 0.00 94 1010.3
20260505071016 66 180 10.0 14.0 0.00 0.00 0.00 94
20260505070016 66 180 10.0 17.0 0.00 0.00 0.00 93 1009.9
20260505065116 66 202 9.0 18.0 0.00 0.00 0.00 92 1010.6
20260505064017 66 180 9.0 17.0 0.00 0.00 0.00 92 1010.4
20260505063017 66 180 8.0 14.0 0.00 0.00 0.00 91 1010.5
20260505062021 66 180 9.0 15.0 0.00 0.00 0.00 91 1010.5
20260505061016 66 202 8.0 14.0 0.00 0.00 0.00 91 1010.8
20260505060016 66 180 7.0 12.0 0.00 0.00 0.00 90 1010.7
20260505055016 66 180 7.0 14.0 0.00 0.00 0.00 89 1010.8
20260505054137 66 180 7.0 13.0 0.00 0.00 0.00 89 1010.8
20260505053016 67 180 7.0 12.0 0.00 0.00 0.00 88 1011.0
20260505052016 67 202 9.0 14.0 0.00 0.00 0.00 88 1011.0
20260505051016 67 202 9.0 15.0 0.00 0.00 0.00 88 1011.2
20260505041016 67 180 9.0 15.0 0.00 0.00 0.00 88 1010.9
20260505040016 67 180 7.0 15.0 0.00 0.00 0.00 87 1011.0
20260505035016 67 180 9.0 16.0 0.00 0.00 0.00 87 1010.8
20260505034016 68 180 8.0 12.0 0.00 0.00 0.00 87 1010.9
20260505033016 68 180 8.0 12.0 0.00 0.00 0.00 86 1010.9
20260505032116 68 180 8.0 13.0 0.00 0.00 0.00 86 1010.9
20260505031016 68 180 8.0 14.0 0.00 0.00 0.00 86 1010.6
20260505030016 68 180 7.0 14.0 0.00 0.00 0.00 86 1010.6
20260505025016 68 180 9.0 14.0 0.00 0.00 0.00 85 1010.5
20260505023017 68 180 8.0 15.0 0.00 0.00 0.00 85 1010.2
20260505022016 69 180 7.0 15.0 0.00 0.00 0.00 85 1010.4
20260505021018 69 180 8.0 13.0 0.00 0.00 0.00 84 1010.5
20260505020018 70 202 8.0 13.0 0.00 0.00 0.00 83 1010.5
20260505015016 70 180 8.0 13.0 0.00 0.00 0.00 82 1010.5
20260505014018 70 202 8.0 13.0 0.00 0.00 0.00 82 1010.5
20260505013016 71 180 10.0 16.0 0.00 0.00 0.00 81 1010.3
20260505012017 71 202 9.0 15.0 0.00 0.00 0.00 80 1010.3
20260505011016 72 202 9.0 15.0 0.00 0.00 0.00 79 1010.3
20260505010120 72 180 8.0 14.0 0.00 0.00 0.00 78 1010.6
20260505005016 73 180 9.0 14.0 0.00 0.00 0.00 77 1010.6
20260505004016 73 202 12.0 20.0 0.00 0.00 0.00 76 1010.6
20260505003016 74 202 13.0 20.0 0.00 0.00 0.00 75 1010.3
20260505002016 74 202 14.0 24.0 0.00 0.00 0.00 72 1010.7
20260505001016 75 202 13.0 21.0 0.00 0.00 0.00 72 1010.8
20260505000016 76 202 11.0 18.0 0.00 0.00 0.00 71 1011.0
20260504235016 76 202 12.0 21.0 0.00 0.00 0.00 71 1010.9
20260504234016 76 180 11.0 18.0 0.00 0.00 0.00 72 1010.6
20260504232016 77 202 14.0 20.0 0.00 0.00 0.00 69 1010.8
20260504231016 77 202 14.0 20.0 0.00 0.00 0.00 69 1010.8
20260504230016 77 202 10.0 17.0 0.00 0.00 0.00 70 1011.0
20260504225018 77 202 13.0 20.0 0.00 0.00 0.00 69 1010.9
20260504224016 77 180 13.0 20.0 0.00 0.00 0.00 69 1011.3
20260504223016 77 180 13.0 20.0 0.00 0.00 0.00 69 1011.4
20260504222019 77 180 10.0 20.0 0.00 0.00 0.00 69 1011.1
20260504221016 77 180 13.0 23.0 0.00 0.00 0.00 69 1011.4
20260504220016 77 202 11.0 23.0 0.00 0.00 0.00 69 1011.5
20260504215016 77 180 11.0 17.0 0.00 0.00 0.00 70 1011.7
20260504214017 77 180 13.0 20.0 0.00 0.00 0.00 69 1011.9
20260504213017 77 202 14.0 21.0 0.00 0.00 0.00 71 1012.0
20260504212017 77 180 12.0 21.0 0.00 0.00 0.00 70 1012.0
20260504211016 76 202 14.0 22.0 0.00 0.00 0.00 70 1012.3
20260504210016 76 202 15.0 23.0 0.00 0.00 0.00 71 1012.3
20260504205016 76 202 13.0 24.0 0.00 0.00 0.00 72 1012.4
20260504204016 76 202 14.0 21.0 0.00 0.00 0.00 71 1012.5
20260504203016 77 202 11.0 19.0 0.00 0.00 0.00 69 1012.8
20260504201016 78 202 14.0 20.0 0.00 0.00 0.00 68 1013.2
20260504200017 78 202 12.0 20.0 0.00 0.00 0.00 67 1013.3
20260504194016 77 180 10.0 17.0 0.00 0.00 0.00 70 1013.6
20260504193017 77 202 12.0 20.0 0.00 0.00 0.00 70 1013.8
20260504192016 76 202 16.0 26.0 0.00 0.00 0.00 70 1014.1
20260504191016 0 202 14.0 22.0 0.00 0.00 0.00
20260504190017 75 180 13.0 23.0 0.00 0.00 0.00 72 1014.1
20260504185016 75 202 13.0 19.0 0.00 0.00 0.00 72 1014.1
20260504184017 75 202 12.0 19.0 0.00 0.00 0.00 74 1014.3
20260504183016 74 202 12.0 19.0 0.00 0.00 0.00 74 1014.1
20260504182017 73 202 12.0 23.0 0.00 0.00 0.00 76 1014.2
20260504181017 73 202 12.0 22.0 0.00 0.00 0.00 75 1014.3
20260504180016 72 202 13.0 22.0 0.00 0.00 0.00 76 1014.3
20260504175016 72 202 12.0 20.0 0.00 0.00 0.00 76 1014.7
20260504174017 72 202 15.0 25.0 0.00 0.00 0.00 76 1014.7
20260504172017 71 202 15.0 23.0 0.00 0.00 0.00 78 1014.7
20260504171017 71 202 13.0 23.0 0.00 0.00 0.00 79 1015.0
20260504170117 70 202 13.0 22.0 0.00 0.00 0.00 79 1014.9
20260504151017 64 202 16.0 26.0 0.00 0.00 0.00 87 1014.9
20260504141017 62 202 15.0 22.0 0.00 0.00 0.00 89 1014.8